| time (UTC) | temp F | wind direction | speed MPH | gust MPH | rain 1hr in | rain 24hr in | rain mn in | humidity % | barometer mb |
| 20260505224304 | 80 | 206 | 7.0 | 18.0 | 0.00 | 0.00 | 0.00 | 33 | 1009.7 |
| 20260505223804 | 80 | 166 | 8.0 | 23.0 | 0.00 | 0.00 | 0.00 | 32 | 1009.8 |
| 20260505220804 | 81 | 173 | 8.0 | 20.0 | 0.00 | 0.00 | 0.00 | 30 | 1010.0 |
| 20260505215806 | 82 | 192 | 8.0 | 22.0 | 0.00 | 0.00 | 0.00 | 30 | 1010.0 |
| 20260505215305 | 82 | 172 | 8.0 | 22.0 | 0.00 | 0.00 | 0.00 | 30 | 1009.9 |
| 20260505214305 | 82 | 192 | 5.0 | 22.0 | 0.00 | 0.00 | 0.00 | 30 | 1009.9 |
| 20260505211804 | 84 | 173 | 6.0 | 18.0 | 0.00 | 0.00 | 0.00 | 31 | 1009.6 |
| 20260505210304 | 83 | 175 | 6.0 | 20.0 | 0.00 | 0.00 | 0.00 | 31 | 1009.7 |
| 20260505205805 | 83 | 174 | 9.0 | 20.0 | 0.00 | 0.00 | 0.00 | 31 | 1009.8 |
| 20260505204305 | 84 | 148 | 7.0 | 20.0 | 0.00 | 0.00 | 0.00 | 29 | 1009.9 |
| 20260505203304 | 85 | 176 | 7.0 | 20.0 | 0.00 | 0.00 | 0.00 | 30 | 1009.7 |
| 20260505201804 | 83 | 149 | 7.0 | 30.0 | 0.00 | 0.00 | 0.00 | 31 | 1009.7 |
| 20260505201304 | 84 | 158 | 7.0 | 15.0 | 0.00 | 0.00 | 0.00 | 32 | 1009.9 |
| 20260505200805 | 84 | 169 | 5.0 | 17.0 | 0.00 | 0.00 | 0.00 | 31 | 1009.8 |
| 20260505200304 | 84 | 157 | 10.0 | 20.0 | 0.00 | 0.00 | 0.00 | 31 | 1009.9 |
| 20260505193304 | 84 | 203 | 5.0 | 20.0 | 0.00 | 0.00 | 0.00 | 33 | 1010.1 |
| 20260505191304 | 84 | 174 | 9.0 | 22.0 | 0.00 | 0.00 | 0.00 | 34 | 1010.3 |
| 20260505185305 | 84 | 184 | 6.0 | 20.0 | 0.00 | 0.00 | 0.00 | 34 | 1010.5 |
| 20260505184806 | 84 | 192 | 9.0 | 22.0 | 0.00 | 0.00 | 0.00 | 33 | 1010.5 |
| 20260505184304 | 84 | 229 | 7.0 | 22.0 | 0.00 | 0.00 | 0.00 | 33 | 1010.6 |
| 20260505181304 | 84 | 182 | 9.0 | 20.0 | 0.00 | 0.00 | 0.00 | 32 | 1011.1 |
| 20260505180304 | 84 | 154 | 7.0 | 20.0 | 0.00 | 0.00 | 0.00 | 32 | 1011.1 |
| 20260505175806 | 83 | 175 | 6.0 | 15.0 | 0.00 | 0.00 | 0.00 | 38 | 1011.2 |
| 20260505173804 | 83 | 147 | 6.0 | 20.0 | 0.00 | 0.00 | 0.00 | 35 | 1011.4 |
| 20260505173304 | 83 | 173 | 9.0 | 20.0 | 0.00 | 0.00 | 0.00 | 33 | 1011.5 |
| 20260505172804 | 83 | 193 | 5.0 | 16.0 | 0.00 | 0.00 | 0.00 | 32 | 1011.5 |
| 20260505172306 | 83 | 172 | 7.0 | 16.0 | 0.00 | 0.00 | 0.00 | 33 | 1011.5 |
| 20260505170804 | 82 | 143 | 8.0 | 18.0 | 0.00 | 0.00 | 0.00 | 36 | 1011.8 |
| 20260505170304 | 82 | 155 | 5.0 | 18.0 | 0.00 | 0.00 | 0.00 | 40 | 1011.8 |
| 20260505165804 | 82 | 157 | 8.0 | 18.0 | 0.00 | 0.00 | 0.00 | 39 | 1011.9 |
| 20260505164304 | 82 | 157 | 3.0 | 9.0 | 0.00 | 0.00 | 0.00 | 43 | 1012.0 |
| 20260505162306 | 80 | 156 | 5.0 | 15.0 | 0.00 | 0.00 | 0.00 | 47 | 1012.2 |
| 20260505161304 | 80 | 155 | 5.0 | 15.0 | 0.00 | 0.00 | 0.00 | 50 | 1012.4 |
| 20260505160304 | 79 | 173 | 6.0 | 14.0 | 0.00 | 0.00 | 0.00 | 48 | 1012.5 |
| 20260505152305 | 77 | 152 | 3.0 | 12.0 | 0.00 | 0.00 | 0.00 | 49 | 1012.6 |
| 20260505151805 | 77 | 167 | 5.0 | 13.0 | 0.00 | 0.00 | 0.00 | 47 | 1012.6 |
| 20260505150804 | 76 | 159 | 6.0 | 15.0 | 0.00 | 0.00 | 0.00 | 49 | 1012.5 |
| 20260505150304 | 75 | 151 | 9.0 | 15.0 | 0.00 | 0.00 | 0.00 | 50 | 1012.6 |
| 20260505140304 | 72 | 153 | 4.0 | 9.0 | 0.00 | 0.00 | 0.00 | 55 | 1012.5 |
| 20260505123804 | 67 | 201 | 2.0 | 6.0 | 0.00 | 0.00 | 0.00 | 60 | 1013.0 |
| 20260505123304 | 67 | 211 | 1.0 | 5.0 | 0.00 | 0.00 | 0.00 | 60 | 1013.0 |
| 20260505122306 | 67 | 198 | 1.0 | 7.0 | 0.00 | 0.00 | 0.00 | 60 | 1013.0 |
| 20260505121804 | 66 | 206 | 2.0 | 6.0 | 0.00 | 0.00 | 0.00 | 62 | 1013.1 |
| 20260505120804 | 66 | 227 | 1.0 | 5.0 | 0.00 | 0.00 | 0.00 | 63 | 1013.0 |
| 20260505120304 | 65 | 199 | 2.0 | 3.0 | 0.00 | 0.00 | 0.00 | 63 | 1013.0 |
| 20260505113304 | 62 | 171 | 3.0 | 8.0 | 0.00 | 0.00 | 0.00 | 66 | 1012.7 |
| 20260505112305 | 62 | 126 | 2.0 | 6.0 | 0.00 | 0.00 | 0.00 | 66 | 1012.6 |
| 20260505111304 | 61 | 197 | 2.0 | 6.0 | 0.00 | 0.00 | 0.00 | 69 | 1012.5 |
| 20260505110304 | 60 | 134 | 3.0 | 8.0 | 0.00 | 0.00 | 0.00 | 71 | 1012.4 |
| 20260505100805 | 54 | 219 | 0.0 | 5.0 | 0.00 | 0.00 | 0.00 | 79 | 1011.9 |
| 20260505100305 | 55 | 222 | 1.0 | 5.0 | 0.00 | 0.00 | 0.00 | 78 | 1011.8 |
| 20260505094804 | 56 | 191 | 1.0 | 5.0 | 0.00 | 0.00 | 0.00 | 77 | 1011.8 |
| 20260505093304 | 54 | 226 | 3.0 | 7.0 | 0.00 | 0.00 | 0.00 | 85 | 1011.7 |
| 20260505092805 | 52 | 200 | 1.0 | 7.0 | 0.00 | 0.00 | 0.00 | 87 | 1011.7 |
| 20260505092305 | 52 | 195 | 1.0 | 3.0 | 0.00 | 0.00 | 0.00 | 88 | 1011.8 |
| 20260505091805 | 51 | 191 | 0.0 | 0.0 | 0.00 | 0.00 | 0.00 | 90 | 1011.8 |
| 20260505090804 | 51 | 227 | 0.0 | 0.0 | 0.00 | 0.00 | 0.00 | 90 | 1011.9 |
| 20260505090303 | 51 | 168 | 0.0 | 0.0 | 0.00 | 0.00 | 0.00 | 90 | 1011.8 |
| 20260505085805 | 51 | 167 | 0.0 | 0.0 | 0.00 | 0.00 | 0.00 | 90 | 1011.8 |
| 20260505084305 | 51 | 167 | 0.0 | 0.0 | 0.00 | 0.00 | 0.00 | 90 | 1011.8 |
| 20260505083803 | 51 | 167 | 0.0 | 0.0 | 0.00 | 0.00 | 0.00 | 89 | 1011.8 |
| 20260505082304 | 51 | 167 | 0.0 | 0.0 | 0.00 | 0.00 | 0.00 | 89 | 1011.9 |
| 20260505081804 | 52 | 167 | 0.0 | 0.0 | 0.00 | 0.00 | 0.00 | 89 | 1011.9 |
| 20260505081303 | 52 | 167 | 0.0 | 0.0 | 0.00 | 0.00 | 0.00 | 89 | 1011.9 |
| 20260505080804 | 52 | 167 | 0.0 | 0.0 | 0.00 | 0.00 | 0.00 | 88 | 1011.9 |
| 20260505080304 | 52 | 167 | 0.0 | 0.0 | 0.00 | 0.00 | 0.00 | 88 | 1011.9 |
| 20260505074304 | 53 | 167 | 0.0 | 0.0 | 0.00 | 0.00 | 0.00 | 85 | 1011.9 |
| 20260505073304 | 53 | 167 | 0.0 | 0.0 | 0.00 | 0.00 | 0.00 | 85 | 1011.8 |
| 20260505072804 | 53 | 167 | 0.0 | 0.0 | 0.00 | 0.00 | 0.00 | 85 | 1011.8 |
| 20260505071804 | 55 | 167 | 0.0 | 0.0 | 0.00 | 0.00 | 0.00 | 80 | 1011.6 |
| 20260505071305 | 55 | 167 | 0.0 | 0.0 | 0.00 | 0.00 | 0.00 | 80 | 1011.7 |
| 20260505063304 | 54 | 173 | 0.0 | 0.0 | 0.00 | 0.00 | 0.00 | 84 | 1011.5 |
| 20260505062804 | 55 | 173 | 0.0 | 0.0 | 0.00 | 0.00 | 0.00 | 84 | 1011.6 |
| 20260505062304 | 55 | 173 | 0.0 | 0.0 | 0.00 | 0.00 | 0.00 | 84 | 1011.5 |
| 20260505061804 | 55 | 173 | 0.0 | 0.0 | 0.00 | 0.00 | 0.00 | 83 | 1011.6 |
| 20260505060805 | 56 | 173 | 0.0 | 0.0 | 0.00 | 0.00 | 0.00 | 81 | 1011.6 |
| 20260505055804 | 55 | 148 | 0.0 | 0.0 | 0.00 | 0.00 | 0.00 | 83 | 1011.8 |
| 20260505054805 | 55 | 148 | 0.0 | 0.0 | 0.00 | 0.00 | 0.00 | 82 | 1011.7 |
| 20260505054305 | 56 | 148 | 0.0 | 0.0 | 0.00 | 0.00 | 0.00 | 80 | 1011.7 |
| 20260505051303 | 57 | 148 | 0.0 | 0.0 | 0.00 | 0.00 | 0.00 | 77 | 1011.9 |
| 20260505041304 | 58 | 146 | 0.0 | 2.0 | 0.00 | 0.00 | 0.00 | 75 | 1011.7 |
| 20260505040305 | 59 | 146 | 1.0 | 3.0 | 0.00 | 0.00 | 0.00 | 74 | 1011.6 |
| 20260505035804 | 59 | 146 | 2.0 | 3.0 | 0.00 | 0.00 | 0.00 | 74 | 1011.5 |
| 20260505035305 | 59 | 146 | 1.0 | 3.0 | 0.00 | 0.00 | 0.00 | 73 | 1011.5 |
| 20260505034804 | 59 | 158 | 0.0 | 3.0 | 0.00 | 0.00 | 0.00 | 73 | 1011.6 |
| 20260505033804 | 59 | 160 | 1.0 | 3.0 | 0.00 | 0.00 | 0.00 | 72 | 1011.5 |
| 20260505032804 | 60 | 161 | 1.0 | 3.0 | 0.00 | 0.00 | 0.00 | 71 | 1011.6 |
| 20260505030304 | 61 | 162 | 1.0 | 3.0 | 0.00 | 0.00 | 0.00 | 68 | 1011.6 |
| 20260505025305 | 62 | 154 | 3.0 | 7.0 | 0.00 | 0.00 | 0.00 | 66 | 1011.6 |
| 20260505024804 | 62 | 158 | 3.0 | 7.0 | 0.00 | 0.00 | 0.00 | 66 | 1011.5 |
| 20260505023804 | 61 | 163 | 2.0 | 7.0 | 0.00 | 0.00 | 0.00 | 68 | 1011.5 |
| 20260505023303 | 61 | 158 | 3.0 | 7.0 | 0.00 | 0.00 | 0.00 | 68 | 1011.5 |
| 20260505022304 | 61 | 170 | 2.0 | 6.0 | 0.00 | 0.00 | 0.00 | 69 | 1011.6 |
| 20260505021804 | 61 | 152 | 2.0 | 3.0 | 0.00 | 0.00 | 0.00 | 69 | 1011.5 |
| 20260505021304 | 61 | 154 | 1.0 | 2.0 | 0.00 | 0.00 | 0.00 | 68 | 1011.6 |
| 20260505015805 | 61 | 154 | 1.0 | 3.0 | 0.00 | 0.00 | 0.00 | 67 | 1011.6 |
| 20260505014307 | 62 | 153 | 1.0 | 3.0 | 0.00 | 0.00 | 0.00 | 66 | 1011.5 |
| 20260505013303 | 62 | 142 | 1.0 | 3.0 | 0.00 | 0.00 | 0.00 | 65 | 1011.4 |
| 20260505012803 | 62 | 165 | 1.0 | 5.0 | 0.00 | 0.00 | 0.00 | 65 | 1011.3 |
| 20260505012306 | 62 | 164 | 1.0 | 5.0 | 0.00 | 0.00 | 0.00 | 64 | 1011.3 |
| 20260505010803 | 62 | 165 | 1.0 | 3.0 | 0.00 | 0.00 | 0.00 | 64 | 1011.1 |
| 20260505010304 | 63 | 165 | 1.0 | 3.0 | 0.00 | 0.00 | 0.00 | 62 | 1011.1 |
| 20260505004804 | 64 | 156 | 2.0 | 6.0 | 0.00 | 0.00 | 0.00 | 59 | 1011.0 |
| 20260505004305 | 64 | 157 | 2.0 | 6.0 | 0.00 | 0.00 | 0.00 | 58 | 1011.1 |
| 20260505003805 | 65 | 159 | 2.0 | 9.0 | 0.00 | 0.00 | 0.00 | 57 | 1011.0 |
| 20260505003304 | 65 | 165 | 3.0 | 9.0 | 0.00 | 0.00 | 0.00 | 57 | 1011.0 |
| 20260505002304 | 66 | 176 | 3.0 | 9.0 | 0.00 | 0.00 | 0.00 | 54 | 1011.0 |
| 20260504235803 | 67 | 150 | 5.0 | 12.0 | 0.00 | 0.00 | 0.00 | 50 | 1010.9 |
| 20260504235305 | 67 | 157 | 6.0 | 12.0 | 0.00 | 0.00 | 0.00 | 49 | 1010.9 |
| 20260504234805 | 67 | 154 | 4.0 | 10.0 | 0.00 | 0.00 | 0.00 | 49 | 1010.9 |
| 20260504232304 | 69 | 159 | 4.0 | 16.0 | 0.00 | 0.00 | 0.00 | 49 | 1011.0 |
| 20260504231803 | 69 | 162 | 7.0 | 16.0 | 0.00 | 0.00 | 0.00 | 47 | 1011.0 |
| 20260504231304 | 69 | 159 | 3.0 | 12.0 | 0.00 | 0.00 | 0.00 | 47 | 1011.0 |
| 20260504224804 | 70 | 156 | 7.0 | 17.0 | 0.00 | 0.00 | 0.00 | 47 | 1010.9 |